Tracking 29892 objects as of 21-Nov-2024
HD Live streaming from Space Station
objects crossing your sky now

STARLINK-2558

Track STARLINK-2558 now!
10-day predictions
STARLINK-2558 is classified as:


NORAD ID: 48282
Int'l Code: 2021-036G
Perigee: 553.2 km
Apogee: 555.2 km
Inclination: 53.1 °
Period: 95.6 minutes
Semi major axis: 6925 km
RCS: Unknown
Launch date: April 29, 2021
Source: United States (US)
Launch site: AIR FORCE EASTERN TEST RANGE (AFETR)
Your satellite tracking list
Your tracking list is empty




NASA's NSSDC Master Catalog

Two Line Element Set (TLE):
1 48282U 21036G   24325.61988632  .00017225  00000-0  11707-2 0  9990
2 48282  53.0536  49.7971 0001441  54.7753 305.3370 15.06455896197441
Source of the keplerian elements: AFSPC